Location: Sungai Kuap
(2.7167°N, 113.6167°E)
Time: 03:14:41
(UTC+00:00)

Daily predictions for brighter satellites

Satellite Brightness Start Highest point End
(mag) Time Altitude Azimuth Time Altitude Azimuth Time Altitude Azimuth
PSLV R/B 3.9 10:49:11 10° SSE 10:53:13 61° ENE 10:57:12 10° N
H-2A R/B 3.5 10:51:17 10° SSW 10:55:48 37° WSW 11:00:19 10° NW
SL-08 RB Rocket 3.7 10:51:49 10° SSE 10:56:13 61° ENE 11:00:36 10° N
BLOCK DM-SL R/B 4.2 04:43:00 10° W 11:02:14 80° S 11:08:21 11° E
Cosmos 1782 4.5 11:03:06 10° SE 11:05:06 14° E 11:07:12 10° ENE
Okean O Rocket 2.3 11:06:05 10° SE 11:10:01 33° ENE 11:13:54 10° NNE
Ariane H10-3 3.0 11:02:55 10° W 11:10:40 56° N 11:13:02 13° ENE
Cosmos 2082 Rocket 3.3 11:09:10 10° NNW 11:14:32 45° WSW 11:19:53 10° S
H-2A R/B 3.7 11:17:14 10° ENE 11:18:26 14° E 11:18:26 14° E
Cosmos 1842 Rocket 3.4 11:16:45 10° S 11:21:08 77° E 11:25:27 10° N
KM-V1 4.2 11:20:03 10° W 11:21:56 30° SSW 11:22:58 20° SSE
Cosmos 2084 3.7 11:19:27 10° NNW 11:23:58 82° WSW 11:28:26 11° SSE
Cosmos 1766 Rocket 4.1 11:20:18 10° NNE 11:24:17 35° E 11:26:54 18° SE
HJ-1C 3.8 11:24:29 25° SE 11:25:46 37° E 11:28:41 10° N
USA 234 3.6 11:31:08 21° ESE 11:35:23 48° NE 11:41:38 10° NNW
CZ-4C R/B 4.1 11:33:09 10° N 11:36:04 40° WNW 11:38:59 10° SSW
YAOGAN 1 2.5 11:32:47 17° SSE 11:36:04 62° ENE 11:40:19 10° N
Cosmos 1862 3.8 11:32:24 10° NNW 11:36:16 60° W 11:40:09 10° S
SWIFT 3.2 11:33:19 10° W 11:37:20 46° NNW 11:40:37 15° NE
Ariane H10 2.4 11:34:47 10° W 11:37:44 70° N 11:38:42 36° ENE
Fermi 3.9 11:35:09 10° NW 11:39:09 60° NNE 11:40:31 37° E
Cosmos 1741 Rocket 4.3 11:34:06 10° SSW 11:39:20 70° WNW 11:44:31 10° N
Cosmos 1447 Rocket 4.4 11:33:57 10° N 11:40:08 65° E 11:46:15 10° SSE
Cosmos 1656 4.0 11:37:15 10° S 11:42:33 40° ESE 11:47:45 10° NE
CZ-4 R/B 1.3 11:41:42 36° SE 11:43:01 57° ENE 11:46:50 10° N
Yuri Rocket 4.4 11:42:37 10° WNW 11:48:50 69° SSW 11:53:25 29° SE
Feng Yun 1-1 Rocket 4.2 11:48:31 20° SSE 11:52:33 73° ENE 11:58:07 10° N
OBJECT-B 3.4 11:58:22 10° NNE 11:58:22 10° NNE 11:58:23 10° NNE
Hubble Space Telescope 0.6 11:51:38 10° WNW 11:55:44 80° SSW 11:56:13 66° SE
